Regional Weather Roundup
Issued by NWS Upton, NY

Current Version | Previous Version | Text Only | Print | Product List | Glossary On
Versions: 1 2 3 4 5 6 7 8 9 10 11 12 13 14 15 16 17 18 19 20 21 22 23 24 25 26 27 28 29 30 31 32 33 34 35 36 37 38 39 40 41 42 43 44 45 46 47 48 49 50
000
ASUS41 KOKX 240708
RWROKX

REGIONAL WEATHER ROUNDUP
NATIONAL WEATHER SERVICE NEW YORK NY
300 AM EDT MON APR 24 2017

NOTE: "FAIR" INDICATES FEW OR NO CLOUDS BELOW 12,000 FEET WITH NO
SIGNIFICANT WEATHER AND/OR OBSTRUCTIONS TO VISIBILITY.

NYZ071-072-176-178-NJZ106-104-240800-
NEW YORK CITY METRO AREA

CITY           SKY/WX    TMP DP  RH WIND       PRES   REMARKS
Central Park   CLEAR     50  38  63 NE3       30.13F
Wall St Helipt SUNNY     48  43  81 CALM      30.12F
Bronx Bot Gard   N/A     45  39  81 NE2       30.11F
LaGuardia APRT MOCLDY    51  41  68 S3        30.10F
Kennedy INTL   MOCLDY    46  45  96 SE3       30.12F
Breezy Point     N/A     46 N/A N/A SW3         N/A
Newark/Liberty MOCLDY    49  42  77 S3        30.11F
Teterboro      CLEAR     48  42  80 CALM      30.10F
$$

NYZ177-179-078>081-240800-
LONG ISLAND NEW YORK

CITY           SKY/WX    TMP DP  RH WIND       PRES   REMARKS
Jones Beach      N/A     48 N/A N/A SW1         N/A
Matinecock PT    N/A     46 N/A N/A S3          N/A
Farmingdale    CLEAR     43  42  97 CALM      30.11F
MacArthur/ISP  CLEAR     40  39  97 N5        30.11F
Shirley        CLEAR     37  36  96 CALM      30.13F
Mt Sinai Harb  NOT AVBL
Westhampton    MOCLDY    31  28  89 CALM      30.14F
East Hampton     N/A     34  33  96 CALM      30.13F
Montauk          N/A     45  44  97 SW3       30.14F
$$

NYZ052-065-067-240800-
HUDSON VALLEY

CITY           SKY/WX    TMP DP  RH WIND       PRES   REMARKS
White Plains   CLEAR     44  40  85 CALM      30.10F
Larchmont Harb   N/A     46 N/A N/A MISG        N/A
Croton O-T Hud   N/A     45 N/A N/A SE2         N/A
Newburgh       CLEAR     45  41  87 CALM      30.10F
Montgomery     PTCLDY    43  39  86 CALM      30.08F
Poughkeepsie   PTCLDY    45  40  82 CALM      30.09F
Albany         PTCLDY    46  36  68 CALM      30.09R
$$

NJZ001-105-106-008-010-013-015-019>022-104-240800-
NEW JERSEY

CITY           SKY/WX    TMP DP  RH WIND       PRES   REMARKS
Newark/Liberty MOCLDY    49  42  77 S3        30.11F
Teterboro      CLEAR     48  42  80 CALM      30.10F
Caldwell       CLEAR     45  42  89 CALM      30.12S
Somerville     CLEAR     42  40  92 CALM      30.09F
Linden           N/A     47  42  82 CALM      30.11F
Sussex         CLEAR     42  40  92 CALM      30.10F
Andover          N/A     44  41  89 CALM      30.09F
Trenton        PTCLDY    46  43  89 CALM      30.10F
Millville      CLOUDY    48  47  96 NE5       30.09F
Atlantic City  CLOUDY    48  44  86 NE5       30.09F
Wrightstown    CLOUDY    45  44  94 E3        30.08F
Toms River     CLOUDY    44  42  93 CALM      30.11F
Belmar         CLOUDY    46  44  93 CALM      30.11F
$$

PAZ047>061-062-071-240800-
EASTERN PENNSYLVANIA

CITY           SKY/WX    TMP DP  RH WIND       PRES   REMARKS
Philadelphia   CLOUDY    51  45  79 CALM      30.11S
Allentown      CLEAR     43  39  86 CALM      30.09S
Scranton       CLEAR     48  36  63 E6        30.08S
$$

CTZ002-004>006-009-010-012-RIZ004-006-007-MAZ004-011-015-240800-
SOUTHERN NEW ENGLAND
 IN CT

CITY           SKY/WX    TMP DP  RH WIND       PRES   REMARKS
Bradley INTL   PTCLDY    44  39  82 S7        30.11S
Hartford       PTCLDY    44  40  85 S5        30.12S
Danbury        CLEAR     40  39  97 CALM      30.12F
Wtrbury/Oxford CLEAR     43  36  75 CALM      30.13S
Bridgeport     PTCLDY    45  41  86 CALM      30.12F
Meriden        CLEAR     43  39  86 CALM      30.12F
New Haven      PTCLDY    41  37  86 CALM      30.12F
Chester          N/A     43  41  93 CALM      30.11F
Groton         CLEAR     43  37  79 CALM      30.12F
Wilimantic     PTCLDY    40  38  93 NE3       30.13F

 IN RI

CITY           SKY/WX    TMP DP  RH WIND       PRES   REMARKS
Providence     PTCLDY    42  40  92 SW3       30.13F
Block Island   CLEAR     43  42  97 SW8       30.13F
Westerly       CLEAR     41  39  93 CALM      30.13F
 IN MA

CITY           SKY/WX    TMP DP  RH WIND       PRES   REMARKS
Boston         PTCLDY    46  38  73 SW7       30.10S
Worcester      PTCLDY    44  35  70 W13       30.09S
Westfield      CLOUDY    43  40  89 CALM      30.10S
Provincetown   PTCLDY    44  42  93 S12       30.12F
Nantucket      CLOUDY    45  42  89 SW10      30.14F
$$

ANZ330-335-338-340-345-350-353-355-240800-
COASTAL MARINE OBSERVATIONS


STATION/POSITION TIME  SKY/WX   TEMP    WIND        PRES    VSBY  WAVE
                                AIR SEA DIR/SP/G                  HT/PER
                 (UTC)          (F)     (DEG/KT/KT) (MB)    (MI)  (FT/S)
NY HARB ENTRANCE 0550            49 50  220/  4/  4 1020.4          3/12
20 S FIRE ISLAND 0650            47 48  150/  4/  6 1019.7          3/11
GREAT SOUTH BAY  0630            49 56  220/  6/  8   N/A
23 SSW MONTAUK P 0550            46 45              1021.3          2/11
15 E BARNEGAT LI 0630               51                N/A           4/11
HUDSON CANYON    0550            47 48  100/  6/  6 1020.3          4/11
KINGS POINT      0648            48 49  180/  2/  3 1019.5
EXECUTION ROCKS  NOT AVBL
CENTRAL LI SOUND 0630            47     210/  4/  4   N/A           1
EASTERN LI SOUND NOT AVBL
ROBBINS REEF     0648            49     170/  4/  5 1019.7
$$


>>>>>>>>>>>>>>>>>>>>>>>>>>>> KEY <<<<<<<<<<<<<<<<<<<<<<<<<<<
>                                                          <
>     SKY/WX - Sky Condition/Present Weather               <
>     TMP    - Temperature in Fahrenheit                   <
>     DP     - Dew Point in Fahrenheit                     <
>     RH     - Relative Humidity in Percent                <
>     WIND   - Direction (from) and Speed in MPH           <
>     PRES   - Mean Sea Level Pressure (inches of Hg)      <
>     WCI    - Wind Chill Index                            <
>     VSB    - VISIBILITY IN MILES                         <
>     HX     - HEAT INDEX                                  <
>     TC     - TEMPERATURE IN CELSIUS                      <
>     VRB    - VARIABLE WIND DIRECTION                     <
>                                                          <
>>>>>>>>>>>>>>>>>>>>>>>>>>>> KEY <<<<<<<<<<<<<<<<<<<<<<<<<<<



USA.gov is the U.S. government's official web portal to all federal, state and local government web resources and services.